When you browse on this site, cookies collect data to enhance your experience and personalize the content and advertising you see.
Visit our Privacy Policy to learn more. By continuing to use the site, you agree to this use of cookies and data.

Hourly Weather Brisbane

Today, 8 August, Saturday

Time Temperature Precipitation Wind Pressure Humidity
00:00 +18°C° 0 mm 1 mps 760 mmHg 90%
01:00 +18°C° 0 mm 1 mps 759 mmHg 91%
02:00 +16°C° 0 mm 1 mps 759 mmHg 90%
03:00 +16°C° 0 mm 1 mps 758 mmHg 90%
04:00 +16°C° 0 mm 2 mps 758 mmHg 88%
05:00 +16°C° 0 mm 1 mps 758 mmHg 88%
06:00 +16°C° 0 mm 1 mps 759 mmHg 88%
07:00 +16°C° 0 mm 1 mps 759 mmHg 88%
08:00 +19°C° 0 mm 1 mps 759 mmHg 81%
09:00 +21°C° 0 mm 1 mps 759 mmHg 75%
10:00 +23°C° 0 mm 1 mps 758 mmHg 68%
11:00 +24°C° 0.1 mm 2 mps 758 mmHg 62%
12:00 +25°C° 0.1 mm 2 mps 757 mmHg 56%
13:00 +26°C° 0.1 mm 3 mps 757 mmHg 49%
14:00 +26°C° 0.1 mm 3 mps 757 mmHg 47%
15:00 +25°C° 0.1 mm 3 mps 756 mmHg 44%
16:00 +25°C° 0.1 mm 3 mps 756 mmHg 41%
17:00 +22°C° 0 mm 4 mps 757 mmHg 43%
18:00 +20°C° 0 mm 4 mps 757 mmHg 45%
19:00 +19°C° 0 mm 4 mps 758 mmHg 48%
20:00 +18°C° 0 mm 4 mps 758 mmHg 52%
21:00 +17°C° 0 mm 4 mps 758 mmHg 56%
22:00 +15°C° 0 mm 4 mps 758 mmHg 60%
23:00 +14°C° 0 mm 4 mps 758 mmHg 64%

Tomorrow, 9 August, Sunday

Time Temperature Precipitation Wind Pressure Humidity
00:00 +13°C° 0 mm 4 mps 758 mmHg 68%
01:00 +12°C° 0 mm 4 mps 759 mmHg 72%
02:00 +12°C° 0 mm 4 mps 758 mmHg 73%
03:00 +11°C° 0 mm 3 mps 758 mmHg 74%
04:00 +11°C° 0 mm 3 mps 758 mmHg 75%
05:00 +10°C° 0 mm 3 mps 759 mmHg 75%
06:00 +10°C° 0 mm 3 mps 759 mmHg 74%
07:00 +10°C° 0 mm 3 mps 760 mmHg 73%
08:00 +11°C° 0 mm 4 mps 760 mmHg 64%
09:00 +13°C° 0 mm 4 mps 760 mmHg 55%
10:00 +15°C° 0 mm 4 mps 759 mmHg 46%
11:00 +17°C° 0 mm 4 mps 759 mmHg 42%
12:00 +18°C° 0 mm 4 mps 758 mmHg 39%
13:00 +19°C° 0 mm 4 mps 758 mmHg 36%
14:00 +19°C° 0 mm 4 mps 757 mmHg 36%
15:00 +19°C° 0 mm 4 mps 757 mmHg 36%
16:00 +19°C° 0 mm 4 mps 757 mmHg 36%
17:00 +17°C° 0 mm 4 mps 757 mmHg 41%
18:00 +14°C° 0 mm 4 mps 758 mmHg 45%
19:00 +13°C° 0 mm 4 mps 758 mmHg 50%
20:00 +12°C° 0 mm 4 mps 759 mmHg 53%
21:00 +11°C° 0 mm 3 mps 759 mmHg 56%
22:00 +11°C° 0 mm 3 mps 759 mmHg 58%
23:00 +10°C° 0 mm 3 mps 759 mmHg 61%

Day after tomorrow, 10 August, Monday

Time Temperature Precipitation Wind Pressure Humidity
00:00 +10°C° 0 mm 3 mps 759 mmHg 63%
01:00 +9°C° 0 mm 3 mps 759 mmHg 66%
02:00 +9°C° 0 mm 3 mps 758 mmHg 68%
03:00 +9°C° 0 mm 3 mps 758 mmHg 70%
04:00 +9°C° 0 mm 3 mps 758 mmHg 72%
05:00 +9°C° 0 mm 3 mps 758 mmHg 73%
06:00 +8°C° 0 mm 3 mps 759 mmHg 74%
07:00 +8°C° 0 mm 2 mps 759 mmHg 74%
08:00 +11°C° 0 mm 3 mps 759 mmHg 67%
09:00 +13°C° 0 mm 4 mps 759 mmHg 59%
10:00 +15°C° 0 mm 5 mps 759 mmHg 51%
11:00 +15°C° 0 mm 5 mps 758 mmHg 49%
12:00 +16°C° 0 mm 5 mps 758 mmHg 47%
13:00 +16°C° 0 mm 5 mps 757 mmHg 45%
14:00 +16°C° 0 mm 5 mps 757 mmHg 45%
15:00 +16°C° 0 mm 5 mps 757 mmHg 45%
16:00 +17°C° 0 mm 4 mps 757 mmHg 45%
17:00 +15°C° 0 mm 4 mps 758 mmHg 50%
18:00 +14°C° 0 mm 4 mps 759 mmHg 54%
19:00 +13°C° 0 mm 4 mps 759 mmHg 58%
20:00 +12°C° 0 mm 4 mps 760 mmHg 61%
21:00 +11°C° 0 mm 4 mps 760 mmHg 65%
22:00 +11°C° 0 mm 3 mps 761 mmHg 69%
23:00 +10°C° 0 mm 3 mps 760 mmHg 71%

11 August, Tuesday

Time Temperature Precipitation Wind Pressure Humidity
00:00 +10°C° 0 mm 3 mps 760 mmHg 74%
01:00 +9°C° 0 mm 3 mps 760 mmHg 77%
02:00 +9°C° 0 mm 3 mps 760 mmHg 78%
03:00 +9°C° 0 mm 3 mps 760 mmHg 79%
04:00 +9°C° 0 mm 3 mps 760 mmHg 80%
05:00 +9°C° 0 mm 3 mps 761 mmHg 80%
06:00 +10°C° 0 mm 2 mps 761 mmHg 80%
07:00 +10°C° 0 mm 2 mps 761 mmHg 81%
08:00 +14°C° 0 mm 2 mps 761 mmHg 73%
09:00 +16°C° 0 mm 3 mps 762 mmHg 64%
10:00 +19°C° 0 mm 3 mps 762 mmHg 56%
11:00 +20°C° 0 mm 3 mps 761 mmHg 54%
12:00 +21°C° 0 mm 3 mps 761 mmHg 52%
13:00 +22°C° 0 mm 3 mps 760 mmHg 49%
14:00 +22°C° 0 mm 3 mps 760 mmHg 52%
15:00 +21°C° 0 mm 3 mps 760 mmHg 54%
16:00 +21°C° 0 mm 3 mps 760 mmHg 56%
17:00 +20°C° 0 mm 3 mps 761 mmHg 62%
18:00 +18°C° 0 mm 3 mps 761 mmHg 68%
19:00 +17°C° 0 mm 3 mps 762 mmHg 75%
20:00 +16°C° 0 mm 2 mps 762 mmHg 77%
21:00 +15°C° 0 mm 2 mps 762 mmHg 80%
22:00 +15°C° 0 mm 2 mps 763 mmHg 83%
23:00 +14°C° 0 mm 2 mps 762 mmHg 84%

12 August, Wednesday

Time Temperature Precipitation Wind Pressure Humidity
00:00 +14°C° 0 mm 1 mps 762 mmHg 85%
01:00 +14°C° 0 mm 1 mps 762 mmHg 86%
02:00 +13°C° 0 mm 1 mps 762 mmHg 87%
03:00 +13°C° 0 mm 1 mps 762 mmHg 87%
04:00 +13°C° 0 mm 1 mps 762 mmHg 88%
05:00 +13°C° 0 mm 1 mps 762 mmHg 88%
06:00 +13°C° 0 mm 2 mps 763 mmHg 88%
07:00 +13°C° 0 mm 2 mps 764 mmHg 88%
08:00 +16°C° 0 mm 1 mps 763 mmHg 79%
09:00 +19°C° 0 mm 1 mps 763 mmHg 70%
10:00 +22°C° 0 mm 1 mps 763 mmHg 61%
11:00 +23°C° 0 mm 1 mps 763 mmHg 57%
12:00 +24°C° 0 mm 1 mps 762 mmHg 52%
13:00 +25°C° 0 mm 1 mps 761 mmHg 48%
14:00 +25°C° 0 mm 2 mps 761 mmHg 51%
15:00 +24°C° 0 mm 2 mps 761 mmHg 53%
16:00 +24°C° 0 mm 2 mps 760 mmHg 56%
17:00 +21°C° 0 mm 2 mps 761 mmHg 65%
18:00 +19°C° 0 mm 2 mps 761 mmHg 74%
19:00 +18°C° 0 mm 2 mps 762 mmHg 83%
20:00 +17°C° 0 mm 2 mps 762 mmHg 84%
21:00 +17°C° 0 mm 2 mps 762 mmHg 86%
22:00 +16°C° 0 mm 2 mps 763 mmHg 87%
23:00 +16°C° 0 mm 1 mps 763 mmHg 88%

13 August, Thursday

Time Temperature Precipitation Wind Pressure Humidity
00:00 +16°C° 0 mm 1 mps 762 mmHg 89%
01:00 +15°C° 0 mm 1 mps 762 mmHg 89%
02:00 +15°C° 0 mm 1 mps 762 mmHg 90%
03:00 +15°C° 0 mm 1 mps 762 mmHg 90%
04:00 +14°C° 0 mm 1 mps 762 mmHg 91%
05:00 +14°C° 0 mm 1 mps 763 mmHg 91%
06:00 +14°C° 0 mm 1 mps 763 mmHg 90%
07:00 +14°C° 0 mm 1 mps 764 mmHg 90%
08:00 +18°C° 0 mm 1 mps 764 mmHg 79%
09:00 +21°C° 0 mm 1 mps 764 mmHg 68%
10:00 +23°C° 0 mm 1 mps 764 mmHg 57%
11:00 +25°C° 0 mm 2 mps 763 mmHg 53%
12:00 +26°C° 0 mm 2 mps 763 mmHg 49%
13:00 +27°C° 0 mm 3 mps 762 mmHg 45%
14:00 +26°C° 0 mm 3 mps 762 mmHg 48%
15:00 +26°C° 0 mm 4 mps 762 mmHg 52%
16:00 +25°C° 0 mm 4 mps 761 mmHg 56%
17:00 +22°C° 0 mm 3 mps 762 mmHg 64%
18:00 +20°C° 0 mm 3 mps 762 mmHg 72%
19:00 +19°C° 0 mm 3 mps 763 mmHg 79%
20:00 +18°C° 0 mm 3 mps 763 mmHg 82%
21:00 +18°C° 0 mm 3 mps 763 mmHg 84%
22:00 +17°C° 0 mm 2 mps 764 mmHg 86%
23:00 +17°C° 0 mm 2 mps 763 mmHg 87%
Show more